When you browse on this site, cookies collect data to enhance your experience and personalize the content and advertising you see.
Visit our Privacy Policy to learn more. By continuing to use the site, you agree to this use of cookies and data.
  • In Österreich
  • Länderverzeichnis
  • Für 7 Tage
  • Wassertemperatur
  • Satellitenkarten
  • Wetterkarte
  • News
  • Widgets
  • user-avatar
    Anmelden

    Stündliche Wetter Kavunivka

    Heute, 18 November, Sonntag

    Zeit Temperatur Niederschläge Wind Luftdruck Luftfeuchtigkeit
    00:00 -3°C° 0 mm 2 m/S 756 mmHg 64%
    01:00 -4°C° 0 mm 2 m/S 756 mmHg 65%
    02:00 -4°C° 0 mm 2 m/S 755 mmHg 67%
    03:00 -4°C° 0 mm 2 m/S 755 mmHg 67%
    04:00 -2°C° 0 mm 1 m/S 755 mmHg 67%
    05:00 -3°C° 0 mm 1 m/S 754 mmHg 67%
    06:00 -2°C° 0 mm 1 m/S 754 mmHg 67%
    07:00 -2°C° 0 mm 1 m/S 753 mmHg 66%
    08:00 -2°C° 0 mm 1 m/S 753 mmHg 66%
    09:00 -1°C° 0 mm 1 m/S 753 mmHg 61%
    10:00 0°C° 0 mm 1 m/S 752 mmHg 57%
    11:00 +1°C° 0 mm 1 m/S 752 mmHg 52%
    12:00 +2°C° 0 mm 1 m/S 752 mmHg 51%
    13:00 +2°C° 0 mm 1 m/S 751 mmHg 51%
    14:00 +3°C° 0 mm 1 m/S 751 mmHg 50%
    15:00 +1°C° 0 mm 0 m/S 751 mmHg 55%
    16:00 0°C° 0 mm 0 m/S 750 mmHg 59%
    17:00 -1°C° 0 mm 0 m/S 750 mmHg 63%
    18:00 -2°C° 0 mm 0 m/S 750 mmHg 63%
    19:00 -2°C° 0 mm 0 m/S 750 mmHg 64%
    20:00 -1°C° 0 mm 1 m/S 750 mmHg 64%
    21:00 -1°C° 0 mm 1 m/S 750 mmHg 64%
    22:00 -1°C° 0 mm 1 m/S 750 mmHg 64%
    23:00 -1°C° 0 mm 1 m/S 750 mmHg 64%

    Morgen, 19 November, Montag

    Zeit Temperatur Niederschläge Wind Luftdruck Luftfeuchtigkeit
    00:00 -1°C° 0 mm 1 m/S 750 mmHg 64%
    01:00 -1°C° 0 mm 1 m/S 750 mmHg 64%
    02:00 -1°C° 0 mm 1 m/S 750 mmHg 64%
    03:00 -3°C° 0 mm 2 m/S 749 mmHg 63%
    04:00 -3°C° 0 mm 2 m/S 749 mmHg 63%
    05:00 -3°C° 0 mm 2 m/S 749 mmHg 62%
    06:00 -3°C° 0 mm 2 m/S 749 mmHg 61%
    07:00 -4°C° 0 mm 3 m/S 749 mmHg 59%
    08:00 -4°C° 0 mm 3 m/S 749 mmHg 58%
    09:00 -2°C° 0 mm 3 m/S 749 mmHg 55%
    10:00 -1°C° 0 mm 3 m/S 749 mmHg 51%
    11:00 -1°C° 0 mm 4 m/S 749 mmHg 48%
    12:00 0°C° 0 mm 4 m/S 749 mmHg 51%
    13:00 0°C° 0 mm 4 m/S 749 mmHg 53%
    14:00 0°C° 0 mm 4 m/S 748 mmHg 56%
    15:00 -1°C° 0 mm 5 m/S 748 mmHg 60%
    16:00 -1°C° 0 mm 5 m/S 748 mmHg 64%
    17:00 -1°C° 0 mm 5 m/S 748 mmHg 68%
    18:00 -2°C° 0.1 mm 5 m/S 748 mmHg 69%
    19:00 -2°C° 0.1 mm 5 m/S 747 mmHg 71%
    20:00 -3°C° 0.1 mm 6 m/S 747 mmHg 72%
    21:00 -3°C° 1 mm 6 m/S 747 mmHg 78%
    22:00 -3°C° 1 mm 6 m/S 747 mmHg 84%
    23:00 -4°C° 1 mm 6 m/S 747 mmHg 89%

    übermorgen, 20 November, Dienstag

    Zeit Temperatur Niederschläge Wind Luftdruck Luftfeuchtigkeit
    00:00 -4°C° 1.2 mm 6 m/S 747 mmHg 90%
    01:00 -4°C° 1.2 mm 7 m/S 747 mmHg 91%
    02:00 -4°C° 1.2 mm 7 m/S 746 mmHg 92%
    03:00 -4°C° 0.5 mm 7 m/S 746 mmHg 92%
    04:00 -4°C° 0.5 mm 7 m/S 746 mmHg 91%
    05:00 -4°C° 0.5 mm 7 m/S 747 mmHg 91%
    06:00 -4°C° 0.1 mm 7 m/S 747 mmHg 91%
    07:00 -4°C° 0.1 mm 6 m/S 748 mmHg 90%
    08:00 -4°C° 0.1 mm 6 m/S 748 mmHg 90%
    09:00 -4°C° 0 mm 6 m/S 748 mmHg 89%
    10:00 -4°C° 0 mm 6 m/S 749 mmHg 89%
    11:00 -2°C° 0 mm 5 m/S 749 mmHg 89%
    12:00 -2°C° 0 mm 5 m/S 749 mmHg 88%
    13:00 -2°C° 0 mm 5 m/S 750 mmHg 87%
    14:00 -2°C° 0 mm 4 m/S 750 mmHg 85%
    15:00 -2°C° 0 mm 4 m/S 750 mmHg 85%
    16:00 -3°C° 0 mm 4 m/S 750 mmHg 85%
    17:00 -4°C° 0 mm 3 m/S 750 mmHg 85%
    18:00 -4°C° 0 mm 3 m/S 750 mmHg 85%
    19:00 -4°C° 0 mm 3 m/S 751 mmHg 85%
    20:00 -5°C° 0 mm 3 m/S 751 mmHg 86%
    21:00 -5°C° 0 mm 3 m/S 751 mmHg 86%
    22:00 -5°C° 0 mm 3 m/S 751 mmHg 86%
    23:00 -4°C° 0 mm 2 m/S 751 mmHg 87%

    21 November, Mittwoch

    Zeit Temperatur Niederschläge Wind Luftdruck Luftfeuchtigkeit
    00:00 -5°C° 0 mm 2 m/S 751 mmHg 87%
    01:00 -5°C° 0 mm 2 m/S 751 mmHg 88%
    02:00 -5°C° 0 mm 2 m/S 751 mmHg 88%
    03:00 -5°C° 0 mm 2 m/S 751 mmHg 89%
    04:00 -6°C° 0 mm 3 m/S 751 mmHg 90%
    05:00 -7°C° 0 mm 3 m/S 751 mmHg 91%
    06:00 -7°C° 0 mm 3 m/S 751 mmHg 91%
    07:00 -7°C° 0 mm 3 m/S 751 mmHg 92%
    08:00 -6°C° 0 mm 3 m/S 751 mmHg 93%
    09:00 -6°C° 0 mm 3 m/S 751 mmHg 92%
    10:00 -5°C° 0 mm 3 m/S 751 mmHg 90%
    11:00 -4°C° 0 mm 3 m/S 751 mmHg 89%
    12:00 -3°C° 0 mm 4 m/S 751 mmHg 89%
    13:00 -3°C° 0 mm 4 m/S 751 mmHg 89%
    14:00 -3°C° 0 mm 4 m/S 751 mmHg 89%
    15:00 -3°C° 0 mm 4 m/S 751 mmHg 90%
    16:00 -4°C° 0 mm 3 m/S 751 mmHg 91%
    17:00 -5°C° 0 mm 3 m/S 751 mmHg 92%
    18:00 -5°C° 0 mm 3 m/S 751 mmHg 92%
    19:00 -5°C° 0 mm 3 m/S 751 mmHg 92%
    20:00 -6°C° 0 mm 3 m/S 751 mmHg 92%
    21:00 -6°C° 0 mm 3 m/S 751 mmHg 92%
    22:00 -6°C° 0 mm 3 m/S 751 mmHg 92%
    23:00 -6°C° 0 mm 3 m/S 751 mmHg 92%

    22 November, Donnerstag

    Zeit Temperatur Niederschläge Wind Luftdruck Luftfeuchtigkeit
    00:00 -7°C° 0 mm 3 m/S 751 mmHg 92%
    01:00 -7°C° 0 mm 3 m/S 751 mmHg 92%
    02:00 -7°C° 0 mm 3 m/S 751 mmHg 93%
    03:00 -7°C° 0 mm 3 m/S 751 mmHg 93%
    04:00 -7°C° 0 mm 3 m/S 751 mmHg 93%
    05:00 -7°C° 0 mm 3 m/S 751 mmHg 93%
    06:00 -8°C° 0 mm 3 m/S 751 mmHg 92%
    07:00 -8°C° 0 mm 3 m/S 752 mmHg 92%
    08:00 -8°C° 0 mm 3 m/S 752 mmHg 92%
    09:00 -6°C° 0 mm 3 m/S 752 mmHg 90%
    10:00 -5°C° 0 mm 3 m/S 752 mmHg 87%
    11:00 -4°C° 0 mm 3 m/S 753 mmHg 85%
    12:00 -4°C° 0 mm 3 m/S 752 mmHg 84%
    13:00 -2°C° 0 mm 3 m/S 752 mmHg 84%
    14:00 -2°C° 0 mm 3 m/S 752 mmHg 84%
    15:00 -4°C° 0 mm 3 m/S 752 mmHg 86%
    16:00 -5°C° 0 mm 3 m/S 753 mmHg 88%
    17:00 -6°C° 0 mm 3 m/S 753 mmHg 90%
    18:00 -6°C° 0 mm 3 m/S 753 mmHg 90%
    19:00 -7°C° 0 mm 3 m/S 753 mmHg 91%
    20:00 -7°C° 0 mm 3 m/S 754 mmHg 92%
    21:00 -7°C° 0 mm 3 m/S 754 mmHg 92%
    22:00 -6°C° 0 mm 2 m/S 754 mmHg 93%
    23:00 -6°C° 0 mm 2 m/S 754 mmHg 93%

    23 November, Freitag

    Zeit Temperatur Niederschläge Wind Luftdruck Luftfeuchtigkeit
    00:00 -7°C° 0 mm 2 m/S 754 mmHg 93%
    01:00 -7°C° 0 mm 2 m/S 754 mmHg 93%
    02:00 -7°C° 0 mm 2 m/S 754 mmHg 93%
    03:00 -7°C° 0 mm 2 m/S 754 mmHg 93%
    04:00 -7°C° 0 mm 2 m/S 755 mmHg 93%
    05:00 -7°C° 0 mm 2 m/S 755 mmHg 93%
    06:00 -7°C° 0 mm 2 m/S 755 mmHg 94%
    07:00 -7°C° 0 mm 2 m/S 755 mmHg 94%
    08:00 -7°C° 0 mm 2 m/S 756 mmHg 94%
    09:00 -6°C° 0 mm 2 m/S 756 mmHg 92%
    10:00 -5°C° 0 mm 2 m/S 756 mmHg 91%
    11:00 -4°C° 0 mm 2 m/S 756 mmHg 89%
    12:00 -3°C° 0 mm 2 m/S 756 mmHg 88%
    13:00 -3°C° 0 mm 2 m/S 756 mmHg 87%
    14:00 0°C° 0 mm 1 m/S 756 mmHg 86%
    15:00 -1°C° 0 mm 1 m/S 755 mmHg 88%
    16:00 -2°C° 0 mm 1 m/S 755 mmHg 89%
    17:00 -3°C° 0 mm 1 m/S 755 mmHg 90%
    18:00 -4°C° 0 mm 1 m/S 755 mmHg 90%
    19:00 -4°C° 0 mm 1 m/S 755 mmHg 90%
    20:00 -4°C° 0 mm 1 m/S 755 mmHg 90%
    21:00 -4°C° 0 mm 1 m/S 755 mmHg 90%
    22:00 -6°C° 0 mm 1 m/S 755 mmHg 90%
    23:00 -6°C° 0 mm 1 m/S 755 mmHg 90%
    Mehr zeigen